Location: Bastrop State Park
(30.1090°N, 97.2819°W)
Time: 11:05:54
(UTC-06:00)

Daily predictions for brighter satellites

Satellite Brightness Start Highest point End
(mag) Time Altitude Azimuth Time Altitude Azimuth Time Altitude Azimuth
Cosmos 2056 Rocket 3.6 18:38:08 10° NNW 18:43:34 72° ENE 18:48:57 10° SSE
COSMOS 2428 4.4 18:39:04 10° NW 18:44:21 40° WSW 18:49:37 10° S
SPOT 3 Rocket 3.9 18:41:53 10° SE 18:46:45 43° ENE 18:51:40 10° N
Lacrosse 5 2.0 18:42:35 10° NNW 18:47:34 57° NE 18:52:30 10° SE
Abrixas rocket 3.4 18:44:59 10° WNW 18:48:01 43° SW 18:51:02 10° SSE
Cosmos 1452 Rocket 4.4 18:45:08 10° N 18:49:39 28° ENE 18:54:07 10° SE
Cosmos 158 Rocket 3.9 18:44:57 10° S 18:49:47 59° ESE 18:54:35 10° NNE
Cosmos 1437 Rocket 4.3 18:47:53 10° SE 18:50:35 18° E 18:53:18 10° NE
KM-V1 4.4 18:51:48 10° W 18:53:40 32° SSW 18:56:00 10° SE
Iridium 4 Rocket 4.2 18:51:21 10° NNE 18:55:09 24° E 18:58:43 10° SE
Gbstr 26 Del rocket 3.5 18:51:58 10° SSW 18:55:22 32° SE 18:58:45 10° ENE
COSMOS 2455 4.4 18:53:23 10° SE 18:56:26 14° ESE 18:59:30 10° ENE
Shenzhou-11 Module 1.8 18:54:37 10° NW 18:57:37 79° NE 19:00:36 10° ESE
GPS 2-05 Rocket1 4.1 18:55:14 10° SSW 18:57:47 22° SSE 19:00:00 12° E
EO 1 Del DPAF 3.2 18:54:25 10° NNE 18:58:14 85° ESE 19:02:03 10° SSW
Cosmos 405 3.6 18:55:36 10° SSW 18:59:03 61° W 19:02:31 10° N
Cosmos 1980 3.7 18:53:45 10° NNW 18:59:27 87° ENE 19:05:08 10° SSE
Cosmos 2233 Rocket 4.3 18:59:34 10° N 19:05:49 73° W 19:11:58 10° S
Cosmos 1378 Rocket 4.2 19:04:40 10° NNE 19:08:42 34° E 19:12:43 10° SE
Cosmos 1782 Rocket 4.2 19:06:02 10° SSE 19:09:59 32° E 19:13:56 10° NNE
Sich 1 Rocket 3.8 19:06:58 10° SSE 19:11:19 47° E 19:15:37 10° NNE
NOAA 12 4.3 19:07:39 10° S 19:12:55 78° WSW 19:18:15 10° NNW
ORS 1 (USA 231) 4.0 19:11:40 10° WNW 19:14:08 72° SSW 19:15:41 19° SE
FengYun 1-2 T 4.3 19:08:51 10° SSE 19:14:12 53° ENE 19:19:31 10° N
DELTA 2 R/B (2) 3.4 19:18:21 10° NW 19:19:52 37° N 19:19:52 37° N
OAO 2 Rocket 3.5 19:16:09 10° W 19:21:02 61° NNW 19:24:26 19° ENE
Cosmos 1464 Rocket 3.9 19:17:48 10° N 19:23:52 62° E 19:29:55 10° SSE
Okean 2 Rocket 3.8 19:23:44 10° SSE 19:27:32 30° E 19:31:22 10° NNE
SJ-6B 3.1 19:28:42 11° SE 19:31:59 39° ENE 19:35:32 10° N
FALCON 9 R/B 4.3 19:25:34 10° WNW 19:32:56 74° N 19:52:01 23° E
SeaSat 1 3.4 19:32:53 25° ENE 19:33:48 27° ENE 19:37:55 10° N
Cosmos 1072 Rocket 4.5 19:28:57 10° N 19:35:12 86° E 19:41:31 10° S
FREGAT/IRIS 2.4 19:32:35 10° S 19:35:31 89° W 19:38:29 10° N
ARGOS Delta rocket 3.8 19:31:53 10° NNE 19:36:34 56° E 19:40:59 10° S
Envisat 3.5 19:31:58 10° SE 19:36:36 37° ENE 19:41:14 10° N
Tiangong 2 2.0 19:35:09 10° NW 19:38:03 33° NNE 19:38:03 33° NNE
H-2A R/B 3.6 19:37:21 10° S 19:41:10 52° W 19:44:59 10° NNW
HJ-1C 3.3 19:38:34 10° SSE 19:41:58 68° ENE 19:45:22 10° N
Sakura Rocket 4.0 19:37:55 10° WSW 19:43:31 74° S 19:47:27 30° E
Cosmos 2237 Rocket 3.7 19:38:30 10° NW 19:43:39 38° WSW 19:48:48 10° S
Thor Agena Rocket 3.4 19:39:16 10° NNE 19:44:21 83° ESE 19:49:23 10° SSW
USA 32 4.1 19:39:15 10° S 19:44:28 83° W 19:49:43 10° N
USA 215 3.8 19:38:39 10° NNE 19:45:01 58° NW 19:51:23 10° WSW
Cosmos 1269 Rocket 4.2 19:40:40 10° SSW 19:45:56 76° WNW 19:51:14 10° NNE
SL-16 R/B 2.1 19:42:11 10° NNW 19:47:51 81° ENE 19:53:29 10° SSE
Cosmos 44 Rocket 3.4 19:43:08 10° NNW 19:48:09 57° ENE 19:50:14 33° SE
Okean 1 3.1 19:48:17 10° N 19:52:16 83° E 19:56:13 10° S
Cosmos 494 Rocket 4.0 19:48:20 10° S 19:53:25 55° ESE 19:55:49 30° NE
ERS-2 2.9 19:50:07 10° S 19:53:42 51° W 19:57:18 10° NNW
CZ-2D R/B 3.1 19:57:56 58° SSE 19:58:37 79° ENE 20:02:31 10° N
Cosmos 2034 Rocket 4.0 19:52:58 10° N 19:59:22 89° E 20:05:42 10° S
Cosmos 921 Rocket 2.9 19:55:49 10° N 20:00:18 67° ENE 20:00:38 64° ESE
Cosmos 2346 Rocket 4.3 19:54:58 10° S 20:01:09 70° E 20:07:17 10° N
Resurs 01 Rocket 3.8 20:20:12 16° N 20:20:12 16° N 20:21:05 10° N
Cosmos 44 4.2 20:13:48 10° NW 20:18:49 51° WSW 20:22:08 21° S
Cosmos 2263 Rocket 2.8 20:15:27 10° S 20:19:05 40° SSE 20:19:05 40° SSE
Cosmos 1975 Rocket 3.5 20:18:35 10° NNW 20:22:58 61° W 20:23:53 48° SW
CZ-3C R/B 3.1 20:19:10 10° SW 20:23:31 42° SSE 20:25:19 38° SE
CZ-4C R/B 4.4 20:19:48 10° N 20:22:50 18° NNE 20:22:50 18° NNE
Meteor 1-11 Rocket 4.0 20:27:43 10° SSW 20:33:11 64° W 20:38:47 10° N
Meteor 1-19 Rocket 4.4 20:30:41 10° NNW 20:36:10 68° W 20:37:23 52° SSW
COSMOS 2455 3.1 20:35:47 10° SW 20:41:43 63° WNW 20:42:50 53° NNW
BREEZE-M DEB (TANK) 4.5 20:20:59 10° SW 20:41:52 74° SE 20:42:28 71° ESE
SeaSat 1 4.5 21:12:42 25° WNW 21:12:42 25° WNW 21:15:27 10° NW
